{"data":{"norad_id":52876,"intl_designator":"2022-062AY","name":"STARLINK-4200","alt_names":[],"object_type":"PAYLOAD","status":"ACTIVE","operator":null,"country":"US","launch_date":"2022-06-17","launch_site_code":"AFETR","launch_vehicle":null,"mission":null,"orbit_class":"UNKNOWN","rcs_meters":null,"size_class":null,"mass_kg":null,"dimensions":null,"purposes":["comms"],"wikipedia_slug":null,"has_3d_model":false,"image_url":null,"decayed_at":null,"tle_current":{"epoch":"2026-05-25T01:37:43.680288Z","epoch_age_seconds":65066,"freshness":"FRESH","line1":"1 52876U 22062AY  26145.06786667  .00000849  00000+0  71394-4 0  9992","line2":"2 52876  53.2135  31.2456 0001289  84.3811 275.7328 15.08842126217590","mean_motion":15.08842126,"eccentricity":0.0001289,"inclination_deg":53.2135,"raan_deg":31.2456,"arg_perigee_deg":84.3811,"mean_anomaly_deg":275.7328,"bstar":7.1394e-5,"rev_number":21759,"period_min":95.43742020363,"perigee_km":538.84517669575,"apogee_km":540.62860458476,"semimajor_km":6917.8738906403,"source":"CELESTRAK","updated_at":"2026-05-25T13:38:17.270201Z"}}}